This is the latest recevied weather packets stored in our database for station/object N3SBK. If no packets are shown the sender has not sent any weather packets the latest 10 day(s).
| Time | Temp. | Humidity | Pressure | Rain* | Wind** | Luminosity | Snow |
|---|---|---|---|---|---|---|---|
| 1787442785 | 17.22° C | 94% | 1004 hPa | 1.78 mm | - | 2 W/m² | - |
| 1787442481 | 17.22° C | 94% | 1004.3 hPa | 0 mm | - | 2 W/m² | - |
| 1787442176 | 17.22° C | 93% | 1004.1 hPa | 0 mm | - | 2 W/m² | - |
| 1787441872 | 17.78° C | 93% | 1004.1 hPa | 0 mm | - | 2 W/m² | - |
| 1787441566 | 17.78° C | 92% | 1004.3 hPa | 0 mm | - | 2 W/m² | - |
| 1787441261 | 17.78° C | 91% | 1004.4 hPa | 3.05 mm | - | 2 W/m² | - |
| 1787440957 | 18.33° C | 89% | 1004.6 hPa | 7.87 mm | - | 3 W/m² | - |
| 1787440652 | 19.44° C | 85% | 1004.7 hPa | 8.89 mm | - | 3 W/m² | - |
| 1787440348 | 20.56° C | 76% | 1004.8 hPa | 1.78 mm | - | 3 W/m² | - |
| 1787440045 | 21.11° C | 73% | 1004.2 hPa | 0 mm | - | 2 W/m² | - |
| 1787439740 | 21.67° C | 71% | 1004.1 hPa | 0 mm | - | 2 W/m² | - |
| 1787439435 | 22.22° C | 71% | 1004 hPa | 0 mm | - | 2 W/m² | - |
| 1787439132 | 22.78° C | 69% | 1003.7 hPa | 0 mm | - | 1 W/m² | - |
| 1787438827 | 23.33° C | 85% | 1003.6 hPa | 0 mm | - | 1 W/m² | - |
| 1787438526 | 23.33° C | 85% | 1003.3 hPa | 0 mm | - | 8 W/m² | - |
| 1787438221 | 23.89° C | 83% | 1003.3 hPa | 0 mm | - | 14 W/m² | - |
| 1787437916 | 23.89° C | 82% | 1003.1 hPa | 0 mm | - | 29 W/m² | - |
| 1787437613 | 23.89° C | 81% | 1003 hPa | 0 mm | - | 33 W/m² | - |
| 1787437309 | 23.89° C | 80% | 1002.9 hPa | 0 mm | - | 31 W/m² | - |
| 1787437006 | 23.89° C | 79% | 1002.6 hPa | 0 mm | - | 47 W/m² | - |
| 1787436701 | 24.44° C | 78% | 1002.5 hPa | 0 mm | - | 59 W/m² | - |
| 1787436397 | 24.44° C | 77% | 1002.4 hPa | 0 mm | - | 54 W/m² | - |
| 1787436096 | 25° C | 75% | 1002.4 hPa | 0 mm | - | 58 W/m² | - |
| 1787435791 | 25° C | 74% | 1002.1 hPa | 0 mm | - | 67 W/m² | - |
| 1787435487 | 25° C | 73% | 1002.4 hPa | 0 mm | - | 91 W/m² | - |
* Rain latest hour (hover to see other rain measurements)
** Current wind speed in m/s (hover to see current wind gust speed)